Moab, UT

3:37 AM MST on November 21, 2019 (GMT -0700)
Canyonlands

Weather History for KCNY - May, 2019

Change the Weather History Date:

Wednesday, May 8, 2019

  Actual Average Record
Temperature  
Mean Temperature 53 °F 60 °F  
Max Temperature 61 °F 75 °F 98 °F (1989)
Min Temperature 44 °F 45 °F 32 °F (1938)
Degree Days  
Heating Degree Days 12 6  
Month to date heating degree days 67 56  
Since 1 July heating degree days 5637 5481  
Cooling Degree Days 0 1  
Month to date cooling degree days 0 6  
Year to date cooling degree days 2 9  
Growing Degree Days 3 (Base 50)    
Moisture  
Dew Point 38 °F    
Average Humidity 56    
Maximum Humidity 71    
Minimum Humidity 40    
Precipitation  
Precipitation T in 0.02 in 0.65 in (1979)
Month to date precipitation T 0.17  
Year to date precipitation 4.99 2.79  
Sea Level Pressure  
Sea Level Pressure 29.77 in    
Wind  
Wind Speed 10 mph (NW)    
Max Wind Speed 17 mph    
Max Gust Speed 25 mph    
Visibility 10 miles    
Events Rain    
T = Trace of Precipitation, MM = Missing Value Source: NWS Daily Summary

Daily Weather History Graph

Daily Weather History Graph

Search for Another Location

Airport or City:

Astronomy

May. 08, 2019 Rise Set
Actual Time 6:13 AM MDT 8:17 PM MDT
Civil Twilight 5:44 AM MDT 8:47 PM MDT
Nautical Twilight 5:08 AM MDT 9:23 PM MDT
Astronomical Twilight 4:30 AM MDT 10:02 PM MDT
Moon 9:14 AM MDT (5/8) No Moon Set
Length of Visible Light 15h 02m
Length of Day
14h 04m
Waxing Crescent, 16% of the Moon is Illuminated
May 8
Waxing Crescent
May 11
First Quarter
May 18
Full
May 26
Last Quarter
Jun 3
New

Hourly Weather History & Observations

Time (MDT) Temp. Dew Point Humidity Pressure Visibility Wind Dir Wind Speed Gust Speed Precip Events Conditions
12:53 AM 55.9 °F 37.9 °F 51% 29.72 in 10.0 mi WSW 11.5 mph - N/A   Overcast
1:53 AM 55.0 °F 39.0 °F 55% 29.71 in 10.0 mi West 15.0 mph - N/A   Clear
2:53 AM 52.0 °F 36.0 °F 54% 29.71 in 10.0 mi West 15.0 mph - N/A   Clear
3:53 AM 50.0 °F 36.0 °F 59% 29.70 in 10.0 mi WSW 9.2 mph - N/A   Clear
4:53 AM 48.9 °F 36.0 °F 61% 29.73 in 10.0 mi WSW 6.9 mph - N/A   Partly Cloudy
5:53 AM 46.9 °F 35.1 °F 63% 29.72 in 10.0 mi Calm Calm - N/A   Partly Cloudy
6:53 AM 48.0 °F 37.0 °F 66% 29.74 in 10.0 mi West 5.8 mph - N/A   Overcast
7:53 AM 53.1 °F 36.0 °F 52% 29.75 in 10.0 mi West 8.1 mph - N/A   Overcast
8:53 AM 54.0 °F 36.0 °F 51% 29.76 in 10.0 mi West 9.2 mph - N/A   Overcast
9:53 AM 54.0 °F 39.9 °F 59% 29.77 in 10.0 mi WNW 11.5 mph - N/A   Overcast
10:53 AM 55.0 °F 39.9 °F 57% 29.78 in 10.0 mi NW 13.8 mph 24.2 mph N/A   Overcast
11:53 AM 50.0 °F 45.0 °F 83% 29.80 in 9.0 mi NW 13.8 mph - 0.00 in Rain Light Rain
12:53 PM 51.1 °F 43.0 °F 74% 29.78 in 10.0 mi NNW 15.0 mph - 0.00 in   Overcast
1:53 PM 57.0 °F 39.0 °F 51% 29.76 in 10.0 mi North 13.8 mph - N/A   Scattered Clouds
2:53 PM 57.9 °F 37.0 °F 46% 29.76 in 10.0 mi North 9.2 mph - N/A   Overcast
3:53 PM 57.9 °F 39.9 °F 51% 29.76 in 10.0 mi North 10.4 mph - N/A   Overcast
4:53 PM 60.1 °F 37.9 °F 44% 29.74 in 10.0 mi NE 15.0 mph - 0.00 in Rain Light Rain
5:23 PM 59.0 °F 37.9 °F 46% 29.83 in 10.0 mi North 16.1 mph 20.7 mph 0.00 in   Overcast
5:53 PM 57.0 °F 41.0 °F 55% 29.77 in 10.0 mi NNW 6.9 mph - 0.00 in Rain Light Rain
6:53 PM 57.9 °F 35.1 °F 42% 29.77 in 10.0 mi NE 9.2 mph - 0.00 in   Overcast
7:53 PM 57.0 °F 33.1 °F 40% 29.78 in 10.0 mi NNE 10.4 mph - N/A   Overcast
8:53 PM 53.1 °F 41.0 °F 64% 29.82 in 10.0 mi West 12.7 mph - N/A   Overcast
9:53 PM 51.1 °F 41.0 °F 68% 29.83 in 10.0 mi WNW 10.4 mph - N/A   Scattered Clouds
10:53 PM 50.0 °F 41.0 °F 71% 29.84 in 10.0 mi NW 8.1 mph - N/A   Partly Cloudy
11:53 PM 48.9 °F 39.0 °F 69% 29.86 in 10.0 mi WNW 6.9 mph - N/A   Clear